Powrót do katalogu

DELTA 1 DEB

AktywnyPO
NORAD 21287·DEBRIS·🇺🇸 United States

Wystrzelony Jun 12, 1975 z Vandenberg Space Force Base

Loading…

Następne Przeloty (najbliższe 24 godziny)

TLE

ŚwieżeSource: Space-Track

Epoka: Sep 14, 2026, 07:48 UTC

1 21287U 75052Y   26257.32560668 -.00000027  00000-0  30309-4 0  9996
2 21287  99.7466  35.8109 0131387  47.8359 342.2523 13.17960693701282

Śledź DELTA 1 DEB w czasie rzeczywistym z AllMySat

Download on the App Store